Time,TemperatureF,DewpointF,PressureIn,WindDirection,WindDirectionDegrees,WindSpeedMPH,WindSpeedGustMPH,Humidity,HourlyPrecipIn,Conditions,Clouds,dailyrainin,SoftwareType,DateUTC
2013-06-02 00:01:00,80.0,31.0,29.71,South,181,8.0,14.0,17,0.00,,,0.00,,2013-06-02 06:01:00,
2013-06-02 00:12:00,80.0,31.0,29.71,South,181,8.0,14.0,17,0.00,,,0.00,,2013-06-02 06:12:00,
2013-06-02 00:21:00,79.0,33.0,29.71,SE,142,11.0,16.0,19,0.00,,,0.00,,2013-06-02 06:21:00,
2013-06-02 00:32:00,78.0,36.0,29.70,SSE,156,21.0,27.0,22,0.00,,,0.00,,2013-06-02 06:32:00,
2013-06-02 00:42:00,78.0,36.0,29.70,SSE,156,21.0,27.0,22,0.00,,,0.00,,2013-06-02 06:42:00,
2013-06-02 00:52:00,78.0,37.0,29.70,SSE,161,18.0,28.0,23,0.00,,,0.00,,2013-06-02 06:52:00,
2013-06-02 01:01:00,77.0,37.0,29.71,South,169,10.0,16.0,24,0.00,,,0.00,,2013-06-02 07:01:00,
2013-06-02 01:11:00,77.0,37.0,29.71,South,169,10.0,16.0,24,0.00,,,0.00,,2013-06-02 07:11:00,
2013-06-02 01:21:00,77.0,38.0,29.71,SSW,199,8.0,17.0,25,0.00,,,0.00,,2013-06-02 07:21:00,
2013-06-02 01:32:00,77.0,38.0,29.71,SSE,160,14.0,21.0,25,0.00,,,0.00,,2013-06-02 07:32:00,
2013-06-02 01:42:00,77.0,38.0,29.71,SSE,160,14.0,21.0,25,0.00,,,0.00,,2013-06-02 07:42:00,
2013-06-02 01:52:00,76.0,38.0,29.71,SSE,159,9.0,15.0,25,0.00,,,0.00,,2013-06-02 07:52:00,
2013-06-02 02:01:00,75.0,38.0,29.72,SSE,164,5.0,16.0,26,0.00,,,0.00,,2013-06-02 08:01:00,
2013-06-02 02:11:00,75.0,38.0,29.72,SSE,164,5.0,16.0,26,0.00,,,0.00,,2013-06-02 08:11:00,
2013-06-02 02:21:00,75.0,38.0,29.71,SSE,153,8.0,14.0,26,0.00,,,0.00,,2013-06-02 08:21:00,
2013-06-02 02:31:00,75.0,38.0,29.71,SSE,158,10.0,16.0,26,0.00,,,0.00,,2013-06-02 08:31:00,
2013-06-02 02:41:00,75.0,38.0,29.71,SSE,158,10.0,16.0,26,0.00,,,0.00,,2013-06-02 08:41:00,
2013-06-02 02:52:00,75.0,39.0,29.71,ESE,119,4.0,13.0,27,0.00,,,0.00,,2013-06-02 08:52:00,
2013-06-02 03:01:00,75.0,38.0,29.71,SE,137,15.0,18.0,26,0.00,,,0.00,,2013-06-02 09:01:00,
2013-06-02 03:11:00,75.0,38.0,29.71,SE,137,15.0,18.0,26,0.00,,,0.00,,2013-06-02 09:11:00,
2013-06-02 03:21:00,74.0,39.0,29.70,SE,130,15.0,20.0,28,0.00,,,0.00,,2013-06-02 09:21:00,
2013-06-02 03:33:00,74.0,39.0,29.71,South,171,6.0,17.0,28,0.00,,,0.00,,2013-06-02 09:33:00,
2013-06-02 03:42:00,74.0,39.0,29.71,South,171,6.0,17.0,28,0.00,,,0.00,,2013-06-02 09:42:00,
2013-06-02 03:53:00,73.0,39.0,29.71,SSE,164,4.0,11.0,29,0.00,,,0.00,,2013-06-02 09:53:00,
2013-06-02 04:02:00,73.0,39.0,29.71,SE,143,0.0,6.0,29,0.00,,,0.00,,2013-06-02 10:02:00,
2013-06-02 04:12:00,73.0,39.0,29.71,SE,143,0.0,6.0,29,0.00,,,0.00,,2013-06-02 10:12:00,
2013-06-02 04:22:00,73.0,40.0,29.72,SE,143,3.0,5.0,30,0.00,,,0.00,,2013-06-02 10:22:00,
2013-06-02 04:32:00,71.0,40.0,29.71,North,355,6.0,9.0,32,0.00,,,0.00,,2013-06-02 10:32:00,
2013-06-02 04:42:00,71.0,40.0,29.71,North,355,6.0,9.0,32,0.00,,,0.00,,2013-06-02 10:42:00,
2013-06-02 04:52:00,72.0,41.0,29.72,North,355,7.0,8.0,32,0.00,,,0.00,,2013-06-02 10:52:00,
2013-06-02 05:02:00,71.0,41.0,29.72,North,5,6.0,10.0,34,0.00,,,0.00,,2013-06-02 11:02:00,
2013-06-02 05:12:00,71.0,41.0,29.72,North,5,6.0,10.0,34,0.00,,,0.00,,2013-06-02 11:12:00,
2013-06-02 05:21:00,72.0,42.0,29.72,North,5,4.0,12.0,34,0.00,,,0.00,,2013-06-02 11:21:00,
2013-06-02 05:32:00,72.0,42.0,29.72,NE,42,6.0,9.0,34,0.00,,,0.00,,2013-06-02 11:32:00,
2013-06-02 05:42:00,72.0,42.0,29.72,NE,42,6.0,9.0,34,0.00,,,0.00,,2013-06-02 11:42:00,
2013-06-02 05:52:00,72.0,42.0,29.73,ENE,63,5.0,8.0,34,0.00,,,0.00,,2013-06-02 11:52:00,
2013-06-02 06:01:00,70.0,43.0,29.73,ENE,62,6.0,8.0,38,0.00,,,0.00,,2013-06-02 12:01:00,
2013-06-02 06:11:00,70.0,43.0,29.73,ENE,62,6.0,8.0,38,0.00,,,0.00,,2013-06-02 12:11:00,
2013-06-02 06:21:00,69.0,43.0,29.74,NNE,22,6.0,8.0,39,0.00,,,0.00,,2013-06-02 12:21:00,
2013-06-02 06:32:00,70.0,44.0,29.75,North,9,9.0,11.0,39,0.00,,,0.00,,2013-06-02 12:32:00,
2013-06-02 06:42:00,70.0,44.0,29.75,North,9,9.0,11.0,39,0.00,,,0.00,,2013-06-02 12:42:00,
2013-06-02 06:52:00,70.0,44.0,29.75,NNE,14,7.0,11.0,39,0.00,,,0.00,,2013-06-02 12:52:00,
2013-06-02 07:01:00,70.0,45.0,29.75,NNE,19,10.0,11.0,40,0.00,,,0.00,,2013-06-02 13:01:00,
2013-06-02 07:11:00,70.0,45.0,29.75,NNE,19,10.0,11.0,40,0.00,,,0.00,,2013-06-02 13:11:00,
2013-06-02 07:21:00,70.0,45.0,29.75,NNE,19,10.0,11.0,40,0.00,,,0.00,,2013-06-02 13:21:00,
2013-06-02 07:32:00,69.0,44.0,29.76,North,11,7.0,11.0,40,0.00,,,0.00,,2013-06-02 13:32:00,
2013-06-02 07:42:00,69.0,44.0,29.76,North,11,7.0,11.0,40,0.00,,,0.00,,2013-06-02 13:42:00,
2013-06-02 07:52:00,71.0,43.0,29.76,NNE,33,11.0,15.0,36,0.00,,,0.00,,2013-06-02 13:52:00,
2013-06-02 08:02:00,70.0,43.0,29.76,North,5,10.0,12.0,38,0.00,,,0.00,,2013-06-02 14:02:00,
2013-06-02 08:11:00,70.0,43.0,29.76,North,5,10.0,12.0,38,0.00,,,0.00,,2013-06-02 14:11:00,
2013-06-02 08:21:00,71.0,44.0,29.76,North,355,8.0,12.0,38,0.00,,,0.00,,2013-06-02 14:21:00,
2013-06-02 08:32:00,72.0,43.0,29.76,North,355,8.0,13.0,35,0.00,,,0.00,,2013-06-02 14:32:00,
2013-06-02 08:42:00,72.0,43.0,29.76,North,355,8.0,13.0,35,0.00,,,0.00,,2013-06-02 14:42:00,
2013-06-02 08:52:00,72.0,44.0,29.77,NNW,333,10.0,13.0,36,0.00,,,0.00,,2013-06-02 14:52:00,
2013-06-02 09:01:00,73.0,44.0,29.77,North,350,9.0,14.0,35,0.00,,,0.00,,2013-06-02 15:01:00,
2013-06-02 09:11:00,73.0,44.0,29.77,North,350,9.0,14.0,35,0.00,,,0.00,,2013-06-02 15:11:00,
2013-06-02 09:21:00,74.0,45.0,29.77,NNW,332,7.0,13.0,36,0.00,,,0.00,,2013-06-02 15:21:00,
2013-06-02 09:33:00,75.0,45.0,29.77,North,355,5.0,10.0,35,0.00,,,0.00,,2013-06-02 15:33:00,
2013-06-02 09:43:00,75.0,45.0,29.77,North,355,5.0,10.0,35,0.00,,,0.00,,2013-06-02 15:43:00,
2013-06-02 09:53:00,76.0,46.0,29.76,NNW,348,8.0,11.0,34,0.00,,,0.00,,2013-06-02 15:53:00,
2013-06-02 10:03:00,77.0,46.0,29.77,NW,323,7.0,9.0,33,0.00,,,0.00,,2013-06-02 16:03:00,
2013-06-02 10:13:00,77.0,46.0,29.77,NW,323,7.0,9.0,33,0.00,,,0.00,,2013-06-02 16:13:00,
2013-06-02 10:23:00,79.0,47.0,29.76,NW,317,4.0,7.0,32,0.00,,,0.00,,2013-06-02 16:23:00,
2013-06-02 10:33:00,78.0,46.0,29.76,NNW,333,6.0,10.0,32,0.00,,,0.00,,2013-06-02 16:33:00,
2013-06-02 10:42:00,78.0,46.0,29.76,NNW,333,6.0,10.0,32,0.00,,,0.00,,2013-06-02 16:42:00,
2013-06-02 10:52:00,80.0,47.0,29.76,West,265,1.0,9.0,32,0.00,,,0.00,,2013-06-02 16:52:00,
2013-06-02 11:02:00,81.0,47.0,29.76,West,275,1.0,5.0,30,0.00,,,0.00,,2013-06-02 17:02:00,
2013-06-02 11:12:00,81.0,47.0,29.76,West,275,1.0,5.0,30,0.00,,,0.00,,2013-06-02 17:12:00,
2013-06-02 11:22:00,80.0,49.0,29.75,SW,217,17.0,22.0,34,0.00,,,0.00,,2013-06-02 17:22:00,
2013-06-02 11:32:00,81.0,48.0,29.75,SSW,209,13.0,22.0,32,0.00,,,0.00,,2013-06-02 17:32:00,
2013-06-02 11:42:00,81.0,48.0,29.75,SSW,198,11.0,21.0,32,0.00,,,0.00,,2013-06-02 17:42:00,
2013-06-02 11:52:00,81.0,48.0,29.75,SSW,198,11.0,21.0,32,0.00,,,0.00,,2013-06-02 17:52:00,
2013-06-02 12:02:00,82.0,49.0,29.74,South,183,16.0,22.0,32,0.00,,,0.00,,2013-06-02 18:02:00,
2013-06-02 12:11:00,82.0,49.0,29.74,South,183,16.0,22.0,32,0.00,,,0.00,,2013-06-02 18:11:00,
2013-06-02 12:21:00,81.0,47.0,29.74,South,171,13.0,23.0,31,0.00,,,0.00,,2013-06-02 18:21:00,
2013-06-02 12:32:00,82.0,48.0,29.72,SW,214,21.0,26.0,31,0.00,,,0.00,,2013-06-02 18:32:00,
2013-06-02 12:42:00,82.0,48.0,29.72,SSW,192,20.0,27.0,31,0.00,,,0.00,,2013-06-02 18:42:00,
2013-06-02 12:52:00,82.0,48.0,29.72,SSW,192,20.0,27.0,31,0.00,,,0.00,,2013-06-02 18:52:00,
2013-06-02 13:01:00,83.0,49.0,29.72,SSW,213,19.0,28.0,31,0.00,,,0.00,,2013-06-02 19:01:00,
2013-06-02 13:11:00,83.0,49.0,29.72,SSW,213,19.0,28.0,31,0.00,,,0.00,,2013-06-02 19:11:00,
2013-06-02 13:21:00,84.0,47.0,29.72,SSW,213,17.0,24.0,28,0.00,,,0.00,,2013-06-02 19:21:00,
2013-06-02 13:32:00,84.0,48.0,29.70,SW,215,20.0,26.0,29,0.00,,,0.00,,2013-06-02 19:32:00,
2013-06-02 13:42:00,84.0,48.0,29.70,SW,215,20.0,26.0,29,0.00,,,0.00,,2013-06-02 19:42:00,
2013-06-02 13:52:00,84.0,47.0,29.70,SSW,210,23.0,31.0,28,0.00,,,0.00,,2013-06-02 19:52:00,
2013-06-02 14:02:00,85.0,47.0,29.70,SSE,162,11.0,28.0,27,0.00,,,0.00,,2013-06-02 20:02:00,
2013-06-02 14:11:00,85.0,47.0,29.70,SSE,162,11.0,28.0,27,0.00,,,0.00,,2013-06-02 20:11:00,
2013-06-02 14:22:00,84.0,47.0,29.69,SSW,211,17.0,36.0,28,0.00,,,0.00,,2013-06-02 20:22:00,
2013-06-02 14:32:00,86.0,48.0,29.69,SW,216,19.0,26.0,27,0.00,,,0.00,,2013-06-02 20:32:00,
2013-06-02 14:42:00,86.0,48.0,29.69,SW,216,19.0,26.0,27,0.00,,,0.00,,2013-06-02 20:42:00,
2013-06-02 14:52:00,86.0,47.0,29.67,SSW,207,17.0,32.0,26,0.00,,,0.00,,2013-06-02 20:52:00,
2013-06-02 15:01:00,86.0,46.0,29.67,South,176,28.0,39.0,25,0.00,,,0.00,,2013-06-02 21:01:00,
2013-06-02 15:12:00,86.0,46.0,29.67,South,176,28.0,39.0,25,0.00,,,0.00,,2013-06-02 21:12:00,
2013-06-02 15:21:00,86.0,46.0,29.66,South,191,17.0,29.0,25,0.00,,,0.00,,2013-06-02 21:21:00,
2013-06-02 15:33:00,87.0,47.0,29.65,SSW,192,19.0,38.0,25,0.00,,,0.00,,2013-06-02 21:33:00,
2013-06-02 15:42:00,87.0,47.0,29.65,SSW,192,19.0,38.0,25,0.00,,,0.00,,2013-06-02 21:42:00,
2013-06-02 15:53:00,87.0,46.0,29.63,SSW,199,21.0,31.0,24,0.00,,,0.00,,2013-06-02 21:53:00,
2013-06-02 16:03:00,87.0,46.0,29.63,South,173,16.0,26.0,24,0.00,,,0.00,,2013-06-02 22:03:00,
2013-06-02 16:12:00,87.0,46.0,29.63,South,173,16.0,26.0,24,0.00,,,0.00,,2013-06-02 22:12:00,
2013-06-02 16:23:00,88.0,47.0,29.62,South,169,16.0,29.0,24,0.00,,,0.00,,2013-06-02 22:23:00,
2013-06-02 16:33:00,89.0,46.0,29.60,South,186,16.0,33.0,23,0.00,,,0.00,,2013-06-02 22:33:00,
2013-06-02 16:42:00,89.0,46.0,29.60,South,186,16.0,33.0,23,0.00,,,0.00,,2013-06-02 22:42:00,
2013-06-02 16:52:00,90.0,46.0,29.59,South,184,21.0,28.0,22,0.00,,,0.00,,2013-06-02 22:52:00,
2013-06-02 17:02:00,89.0,47.0,29.59,South,190,14.0,25.0,24,0.00,,,0.00,,2013-06-02 23:02:00,
2013-06-02 17:12:00,89.0,47.0,29.59,South,190,14.0,25.0,24,0.00,,,0.00,,2013-06-02 23:12:00,
2013-06-02 17:22:00,90.0,47.0,29.57,SSW,207,13.0,26.0,23,0.00,,,0.00,,2013-06-02 23:22:00,
2013-06-02 17:32:00,91.0,44.0,29.56,South,183,13.0,25.0,20,0.00,,,0.00,,2013-06-02 23:32:00,
2013-06-02 17:42:00,91.0,44.0,29.56,South,183,13.0,25.0,20,0.00,,,0.00,,2013-06-02 23:42:00,
2013-06-02 17:52:00,90.0,45.0,29.56,SSW,196,19.0,30.0,21,0.00,,,0.00,,2013-06-02 23:52:00,
2013-06-02 18:01:00,90.0,43.0,29.54,SW,233,21.0,26.0,20,0.00,,,0.00,,2013-06-03 00:01:00,
2013-06-02 18:12:00,90.0,43.0,29.54,SW,233,21.0,26.0,20,0.00,,,0.00,,2013-06-03 00:12:00,
2013-06-02 18:21:00,89.0,44.0,29.54,SSW,204,15.0,26.0,21,0.00,,,0.00,,2013-06-03 00:21:00,
2013-06-02 18:32:00,89.0,44.0,29.54,SSW,202,5.0,13.0,21,0.00,,,0.00,,2013-06-03 00:32:00,
2013-06-02 18:42:00,89.0,44.0,29.54,SSW,202,5.0,13.0,21,0.00,,,0.00,,2013-06-03 00:42:00,
2013-06-02 18:51:00,89.0,44.0,29.54,SSW,196,15.0,18.0,21,0.00,,,0.00,,2013-06-03 00:51:00,
2013-06-02 19:01:00,89.0,44.0,29.55,SW,216,15.0,19.0,21,0.00,,,0.00,,2013-06-03 01:01:00,
2013-06-02 19:11:00,89.0,44.0,29.55,SW,216,15.0,19.0,21,0.00,,,0.00,,2013-06-03 01:11:00,
2013-06-02 19:21:00,89.0,44.0,29.56,SSW,205,13.0,17.0,21,0.00,,,0.00,,2013-06-03 01:21:00,
2013-06-02 19:32:00,89.0,45.0,29.55,South,184,13.0,21.0,22,0.00,,,0.00,,2013-06-03 01:32:00,
2013-06-02 19:42:00,89.0,45.0,29.55,South,184,13.0,21.0,22,0.00,,,0.00,,2013-06-03 01:42:00,
2013-06-02 19:52:00,79.0,51.0,29.54,SSW,192,45.0,57.0,38,0.00,,,0.00,,2013-06-03 01:52:00,
2013-06-02 20:02:00,78.0,51.0,29.54,South,177,40.0,59.0,39,0.00,,,0.00,,2013-06-03 02:02:00,
2013-06-02 20:12:00,78.0,51.0,29.54,South,177,40.0,59.0,39,0.00,,,0.00,,2013-06-03 02:12:00,
2013-06-02 20:22:00,75.0,52.0,29.54,South,171,30.0,47.0,44,0.00,,,0.00,,2013-06-03 02:22:00,
2013-06-02 20:32:00,75.0,48.0,29.54,South,180,35.0,55.0,39,0.00,,,0.00,,2013-06-03 02:32:00,
2013-06-02 20:42:00,75.0,48.0,29.54,South,180,35.0,55.0,39,0.00,,,0.00,,2013-06-03 02:42:00,
2013-06-02 20:52:00,76.0,49.0,29.55,South,182,27.0,44.0,38,0.00,,,0.00,,2013-06-03 02:52:00,
2013-06-02 21:02:00,76.0,46.0,29.56,SSE,167,24.0,34.0,35,0.00,,,0.00,,2013-06-03 03:02:00,
2013-06-02 21:12:00,76.0,46.0,29.56,SSE,167,24.0,34.0,35,0.00,,,0.00,,2013-06-03 03:12:00,
2013-06-02 21:22:00,76.0,47.0,29.57,South,178,24.0,36.0,36,0.00,,,0.00,,2013-06-03 03:22:00,
2013-06-02 21:33:00,76.0,46.0,29.58,South,190,25.0,37.0,34,0.00,,,0.00,,2013-06-03 03:33:00,
2013-06-02 21:43:00,76.0,46.0,29.58,South,190,25.0,37.0,34,0.00,,,0.00,,2013-06-03 03:43:00,
2013-06-02 21:53:00,76.0,45.0,29.60,South,180,25.0,36.0,33,0.00,,,0.00,,2013-06-03 03:53:00,
2013-06-02 22:03:00,75.0,45.0,29.61,SSW,195,29.0,38.0,35,0.00,,,0.00,,2013-06-03 04:03:00,
2013-06-02 22:13:00,75.0,45.0,29.61,SSW,195,29.0,38.0,35,0.00,,,0.00,,2013-06-03 04:13:00,
2013-06-02 22:23:00,74.0,47.0,29.62,SSW,193,27.0,36.0,39,0.00,,,0.00,,2013-06-03 04:23:00,
2013-06-02 22:33:00,73.0,47.0,29.62,SSW,200,28.0,33.0,40,0.00,,,0.00,,2013-06-03 04:33:00,
2013-06-02 22:42:00,73.0,47.0,29.62,SSW,200,28.0,33.0,40,0.00,,,0.00,,2013-06-03 04:42:00,
2013-06-02 22:53:00,73.0,47.0,29.63,SSW,203,28.0,34.0,40,0.00,,,0.00,,2013-06-03 04:53:00,
2013-06-02 23:02:00,71.0,49.0,29.63,South,184,40.0,54.0,45,0.00,,,0.00,,2013-06-03 05:02:00,
2013-06-02 23:12:00,71.0,49.0,29.63,South,184,40.0,54.0,45,0.00,,,0.00,,2013-06-03 05:12:00,
2013-06-02 23:22:00,71.0,49.0,29.64,South,171,22.0,37.0,45,0.00,,,0.00,,2013-06-03 05:22:00,
2013-06-02 23:32:00,72.0,47.0,29.66,South,184,21.0,34.0,41,0.00,,,0.00,,2013-06-03 05:32:00,
2013-06-02 23:42:00,72.0,47.0,29.66,South,184,21.0,34.0,41,0.00,,,0.00,,2013-06-03 05:42:00,
2013-06-02 23:52:00,73.0,44.0,29.66,South,174,27.0,41.0,36,0.00,,,0.00,,2013-06-03 05:52:00,